Location: Unspecified
(0.0000°N, 0.0000°E)
Time: 14:51:55
(UTC+00:00)

Vanguard 1 Rocket - Pass Details

Date: 25 March 2018
Orbit: 649 x 4227 km, 34.3° (Epoch: 15 November)

Event Time Altitude Azimuth Distance (km) Brightness Sun altitude
Rises 21:06:13 0° 321° (NW) 5,021 11.6 -45.0°
Reaches altitude 10° 21:09:02 10° 326° (NNW) 4,393 11.1 -45.7°
Enters shadow 21:17:23 44° 1° (N) 3,346 10.0 -47.8°
Maximum altitude 21:22:01 53° 42° (NE) 3,476 - -49.0°
Drops below altitude 10° 21:44:50 10° 113° (ESE) 7,319 - -54.7°
Sets 21:51:15 0° 117° (ESE) 8,470 - -56.3°
